Back to catalog

FENGYUN 1C DEB

LostSSO
NORAD 38825·DEBRIS·🇨🇳 China

Launched May 10, 1999 from Taiyuan Satellite Launch Center

Loading…

Next Passes (next 24 hours)

TLE

StaleSource: Space-Track

Epoch: Aug 31, 2022, 11:36 UTC

1 38825U 99025EVR 22243.48333715  .00000524  00000-0  46288-3 0  9990
2 38825  99.0212 330.7583 0223916 103.8969 320.3606 13.78353512577916

Track FENGYUN 1C DEB in real time with AllMySat

Download on the App Store